Regional Weather Roundup
Issued by NWS Green Bay, WI

Home | Current Version | Previous Version | Text Only | Print | Product List | Glossary On
Versions: 1 2 3 4 5 6 7 8 9 10 11 12 13 14 15 16 17 18 19 20 21 22 23 24 25 26 27 28 29 30 31 32 33 34 35 36 37 38 39 40 41 42 43 44 45 46 47 48 49 50
000
ASUS43 KGRB 282011
RWRGRB

NORTH-CENTRAL AND NORTHEAST WISCONSIN REGIONAL WEATHER ROUNDUP
NATIONAL WEATHER SERVICE GREEN BAY WI
300 PM CDT SAT MAY 28 2016

WIZ005-009-010>012-018-019-282100-
NORTH CENTRAL WISCONSIN

CITY           SKY/WX    TMP DP  RH WIND       PRES   REMARKS
IRONWOOD       CLOUDY    59  59 100 CALM      29.74S
MANITOWISH WTR NOT AVBL
ARBOR VITAE    RAIN      66  64  94 NW3       29.75F
EAGLE RIVER      N/A     72  69  90 S6        29.75F
LAND O LAKES   LGT RAIN  68  67  96 S6        29.77F
RHINELANDER    CLOUDY    73  64  73 S15G25    29.77S
PHILLIPS       TSTM      66  65  99 CALM      29.77R VSB 1
ANTIGO         PTSUNNY   75  65  71 SW17G23   29.80S
TOMAHAWK       CLOUDY    69  64  84 SW6G22    29.77R
MERRILL        PTSUNNY   75  66  72 SW13G26   29.77S
$$

WIZ013-073-282100-
NORTHEAST WISCONSIN

CITY           SKY/WX    TMP DP  RH WIND       PRES   REMARKS
IRON MOUNTAIN  CLOUDY    75  67  76 S10G21    29.78R
MARINETTE      CLOUDY    81  66  61 SW16      29.81S
OCONTO         PTSUNNY   79  69  70 S10G21    29.81S
$$

WIZ017-030-035>037-045-282100-
CENTRAL WISCONSIN

CITY           SKY/WX    TMP DP  RH WIND       PRES   REMARKS
MEDFORD        CLOUDY    68  66  93 SW14      29.79R
WAUSAU         MOSUNNY   79  63  57 S22G30    29.76S
MOSINEE        PTSUNNY   75  64  69 S15G21    29.79S
MARSHFIELD     MOSUNNY   77  65  66 W16       29.78S
WISC RAPIDS    MOSUNNY   78  58  49 SW18G26   29.81R
STEVENS POINT  PTSUNNY   76  60  56 SW16G26   29.80S
WAUPACA        MOSUNNY   82  63  53 S14       29.81F
SHAWANO        PTSUNNY   80  63  55 S13G18    29.81F
CLINTONVILLE   MOSUNNY   81  59  47 SW18G26   29.81S
WAUTOMA        PTSUNNY   80  64  58 SW15G21   29.80F
$$

WIZ038-039-048-051-282100-
FOX VALLEY

CITY           SKY/WX    TMP DP  RH WIND       PRES   REMARKS
NWS GREEN BAY  MOSUNNY   80  66  62 S18G25    29.81F
APPLETON       PTSUNNY   79  64  61 SW13      29.81F
OSHKOSH        MOSUNNY   80  63  55 S20G26    29.82S
FOND DU LAC    MOSUNNY   81  65  58 S18G28    29.82F
$$

WIZ022-050-052-282100-
EAST CENTRAL WISCONSIN

CITY           SKY/WX    TMP DP  RH WIND       PRES   REMARKS
EPHRAIM        MOCLDY    71  64  78 S14G31    29.83F
STURGEON BAY   NOT AVBL
MANITOWOC      MOSUNNY   68  61  78 S20G26    29.86F
SHEBOYGAN      CLOUDY    74  64  71 S13G18    29.85F
$$

LMZ563-521-522-541>543-282100-
LAKESHORE

STATION/POSITION TIME  TEMP    WIND        PRES    VSBY  WAVE
                       AIR SEA DIR/SP/G                  HT/PER
                 (UTC) (F)     (DEG/KT/KT) (MB)    (MI)  (FT/S)
SHEBOYGAN LKSHOR 2000   57     170/ 18/ 18 1011.5F
KEWAUNEE LKSHORE 1900   54     180/ 12/ 14 1010.8R
ALGOMA MARINA    1902          210/ 13/ 14   N/A
NORTHPORT PIER   2000   66     160/ 11/ 17 1010.5F
N MID LAKE BUOY  1950   54 46  190/ 17/ 21 1010.9R         3/ 5
SISTER BAY LKSHO 1905   71     200/ 27/ 34   N/A
CHAMBERS ISLAND  1900   71     140/  9/ 18 1009.8S
MENOMINEE LKSHOR 1900   65     150/ 14/ 16 1008.7R
$$



USA.gov is the U.S. government's official web portal to all federal, state and local government web resources and services.